Location: Butte
(46.0040°N, 112.5340°W)
Time: 16:22:39
(UTC-06:00)

Daily predictions for brighter satellites

Satellite Brightness Start Highest point End
(mag) Time Altitude Azimuth Time Altitude Azimuth Time Altitude Azimuth
Cosmos 1544 3.8 20:16:49 10° SSE 20:20:05 32° E 20:23:24 10° NNE
Cosmos 1437 Rocket 3.6 20:20:57 10° SSW 20:24:56 60° WNW 20:29:00 10° N
Lacrosse 5 1.9 20:19:53 10° SW 20:24:58 84° SE 20:30:04 10° NE
Cosmos 1833 Rocket 3.1 20:19:42 10° NNW 20:25:07 46° ENE 20:30:31 10° SE
FENGYUN 3A 3.7 20:21:00 10° SSE 20:26:24 83° ENE 20:31:50 10° NNW
Cosmos 1605 Rocket 4.1 20:25:21 10° S 20:31:32 63° E 20:37:50 10° NNE
Cosmos 1470 4.2 20:28:46 10° SE 20:31:33 19° E 20:34:20 10° NE
Spot 2 Rocket 3.6 20:27:38 10° SSE 20:32:41 64° ENE 20:37:45 10° N
Meteor 1-22 Rocket 4.5 20:26:58 10° S 20:32:51 87° W 20:38:59 10° N
Cosmos 1867 4.0 20:30:21 10° S 20:35:23 40° ESE 20:40:28 10° NE
Cosmos 2278 Rocket 2.2 20:29:54 10° SSW 20:35:35 85° ESE 20:41:19 10° NNE
SJ-6B 3.7 20:35:37 10° S 20:39:14 49° W 20:42:54 10° NNW
Cosmos 1340 Rocket 3.9 20:36:24 10° NNE 20:39:48 25° ENE 20:42:57 11° SE
ATLAS 5 CENTAUR R/B 2.7 20:38:04 10° S 20:42:01 27° ESE 20:46:14 10° ENE
Cosmos 2344 3.8 20:34:52 10° SW 20:42:33 89° WNW 20:51:30 10° NE
Cosmos 2123 Rocket 4.2 20:36:56 10° N 20:43:16 78° W 20:49:32 10° S
H-2A R/B 2.8 20:43:33 10° SSE 20:47:28 85° W 20:51:27 10° NNW
Timation 1 Rocket 4.4 20:42:13 10° SSW 20:48:08 63° ESE 20:54:06 10° NNE
Envisat 3.6 20:46:16 10° SE 20:50:54 37° ENE 20:55:33 10° N
Cosmos 2297 3.8 20:47:14 10° S 20:52:48 56° ESE 20:58:25 10° NNE
Resurs 1-3 3.6 20:50:30 10° SSE 20:54:53 87° WSW 20:59:19 10° NNW
Cosmos 1408 Rocket 3.6 20:52:13 10° N 20:56:40 59° E 21:01:04 10° SSE
USA 267 4.3 20:51:14 10° ENE 20:57:07 37° N 21:02:59 10° NW
Cosmos 1125 Rocket 3.4 20:55:14 10° SSW 21:00:24 72° ESE 21:05:38 10° NNE
Cosmos 1048 Rocket 3.9 20:55:53 10° NNW 21:01:03 89° WSW 21:06:10 10° SSE
Geosat 4.2 20:56:46 10° NE 21:01:38 47° ESE 21:06:27 10° S
Cosmos 2082 Rocket 2.2 20:57:43 10° NNW 21:03:27 87° WSW 21:09:07 10° SSE
H-2A R/B 4.2 21:02:46 10° ENE 21:03:41 10° NE 21:04:37 10° NE
ERS-1 Rocket 3.9 21:03:19 18° ESE 21:05:59 29° ENE 21:10:18 10° N
Cosmos 1758 3.4 21:02:24 10° S 21:06:23 82° W 21:10:25 10° N
SeaSat 1 3.6 21:01:45 10° S 21:06:27 44° WSW 21:11:11 10° NW
Cosmos 2151 4.3 21:05:09 10° NNE 21:08:26 21° ENE 21:09:14 20° E
ALOS 3.9 21:06:12 10° SSW 21:10:29 36° W 21:14:49 10° NNW
Cosmos 2061 Rocket 4.2 21:06:39 10° SSE 21:12:46 50° E 21:18:56 10° NNE
Cosmos 1271 Rocket 2.9 21:09:33 10° S 21:13:27 52° E 21:17:23 10° NNE
Cosmos 1953 2.5 21:09:25 10° SSW 21:13:28 75° W 21:17:33 10° N
Helios 1B rocket 2.4 21:09:34 10° NNE 21:13:40 58° E 21:17:43 10° S
Timation 2 Rocket 4.0 21:08:44 10° NNW 21:15:07 87° WSW 21:20:51 12° SSE
OE (NEXTSAT) 4.3 21:13:41 10° WSW 21:17:18 83° SSE 21:18:55 30° E
SAR-Lupe-4 3.7 21:15:47 10° S 21:19:21 73° WSW 21:22:58 10° NNW
Meteor 1-29 3.0 21:16:02 10° NNE 21:19:26 52° E 21:22:51 10° S
Cosmos 1076 Rocket 4.2 21:16:43 10° NNW 21:20:52 53° W 21:24:59 10° S
Cosmos 1674 2.9 21:18:39 10° NNW 21:22:26 71° W 21:26:13 10° S
YAOGAN 6 3.5 21:22:03 29° E 21:22:29 30° ENE 21:25:47 10° N
Cosmos 1939 Rocket 3.0 21:20:09 24° SE 21:22:30 56° ENE 21:26:35 10° N
Cosmos 1459 Rocket 3.9 21:16:56 10° S 21:23:05 63° E 21:29:11 10° NNE
Lacrosse 4 Rocket 4.4 21:22:44 10° WNW 21:24:57 14° NW 21:27:10 10° N
CZ-4B DEB 2.6 21:25:29 28° S 21:26:59 86° WSW 21:30:07 10° NNW
SWAS 4.3 21:23:19 10° SSW 21:27:36 78° ESE 21:31:56 10° NNE
COSMOS 2487 3.7 21:24:15 10° NW 21:27:39 41° WSW 21:30:55 11° S
Cosmos 2173 Rocket 3.9 21:24:04 10° S 21:30:12 70° E 21:36:28 10° NNE
Lacrosse 5 rocket 1.3 21:28:45 10° NW 21:32:41 68° SW 21:33:58 38° SSE
Helios 1A 3.6 21:30:13 10° S 21:34:19 57° W 21:38:28 10° NNW
ISS -3.1 21:32:19 10° SW 21:34:48 38° S 21:34:48 38° S
USA 186 3.4 21:36:22 15° SW 21:37:28 21° W 21:39:17 10° NW
Cosmos 2251 Rocket 3.5 21:34:22 10° NNW 21:39:41 64° ENE 21:41:56 34° SE
Meteor 2-17 Rocket 4.4 21:39:52 10° S 21:45:57 66° E 21:52:03 10° NNE
GP-B 3.9 21:41:47 10° SSW 21:46:06 51° W 21:50:27 10° NNW
Cosmos 1626 4.0 21:47:31 10° NNE 21:49:15 20° NE 21:49:15 20° NE
Cosmos-2242 3.6 21:46:38 10° SSW 21:50:48 55° WNW 21:55:00 10° N
Resurs 01 Rocket 4.2 21:50:41 10° SW 21:53:54 19° W 21:57:07 10° NW
Cosmos 2369 Rocket 3.8 22:00:19 18° NE 22:00:19 18° NE 22:01:57 10° NE
Cosmos 389 Rocket 4.4 21:59:48 20° NNE 21:59:48 20° NNE 22:01:05 10° NNE
Cosmos 2016 Rocket 3.9 21:55:58 10° S 22:02:11 88° E 22:08:22 10° N
Cosmos 1356 Rocket 3.3 21:58:47 10° NNW 22:02:55 80° W 22:03:29 64° SSW
USA 215 3.2 21:59:09 10° ENE 22:05:35 57° SE 22:11:58 10° SSW
MetOp-B 4.1 22:05:13 52° ESE 22:06:14 63° ENE 22:11:32 10° N
Cosmos 1470 4.3 22:03:42 10° SW 22:07:24 36° WNW 22:11:05 10° N
Cosmos 2221 4.1 22:10:26 24° NE 22:10:26 24° NE 22:12:25 10° NNE
Lacrosse 5 3.5 22:03:53 10° W 22:08:26 32° NNW 22:13:00 10° NE
Cosmos 1833 Rocket 4.3 22:04:00 10° NW 22:08:51 30° WSW 22:13:39 10° SSW
Cosmos 1725 Rocket 3.8 22:08:00 31° S 22:11:10 73° E 22:17:22 10° NNE
SPOT 5 3.1 22:12:49 58° ESE 22:13:22 62° ENE 22:18:37 10° N
Cosmos 1500 Rocket 4.0 22:11:05 10° NNW 22:15:21 57° W 22:16:19 45° SW
H-2A R/B 3.9 22:17:29 19° NNE 22:17:29 19° NNE 22:19:11 10° N
Cosmos 494 Rocket 4.2 22:11:45 10° NNW 22:16:49 62° WSW 22:18:14 44° SSW
NOAA 11 4.1 22:16:04 60° SE 22:17:01 76° ENE 22:22:32 10° N
Cosmos 1805 Rocket 4.5 22:14:45 10° N 22:17:50 37° NNE 22:17:50 37° NNE
CZ-3B DEB 3.3 22:12:07 10° W 22:19:10 35° NNW 22:21:29 21° NNE
BREEZE-M DEB (TANK) 4.3 22:18:40 10° W 22:22:39 76° NNW 22:38:21 10° ENE
Terra 3.5 22:26:48 22° NE 22:26:48 22° NE 22:29:20 10° N
ATLAS 5 CENTAUR R/B 2.7 22:21:44 10° WSW 22:26:23 49° NW 22:31:30 10° NNE
Tsikada Rocket 4.0 22:22:20 10° N 22:28:34 80° W 22:30:36 46° S
Cosmos 2058 3.6 22:30:28 10° NNW 22:34:00 53° WNW 22:34:00 53° WNW
Cosmos 2346 Rocket 4.3 22:29:02 10° N 22:35:16 74° E 22:35:46 70° ESE
SL-08 RB Rocket 4.3 22:37:07 52° NNE 22:37:07 52° NNE 22:40:47 10° N
USA 267 3.3 22:38:11 54° E 22:39:30 67° NNE 22:46:00 10° NW
H-2A R/B 2.4 22:42:52 55° NNE 22:42:52 55° NNE 22:47:19 10° N
ERS-1 Rocket 4.1 22:43:18 33° SW 22:44:37 39° W 22:49:22 10° NNW
Cosmos 2151 4.3 22:41:57 10° NNW 22:45:52 36° W 22:45:52 36° W
ARGOS 3.3 22:55:40 67° W 22:55:40 67° W 23:00:51 10° NNW
MOS 1-B Rocket 4.4 22:55:19 66° SSE 22:56:36 87° ENE 23:03:31 10° NNW
Cosmos 2233 Rocket 4.3 23:15:53 58° W 23:16:22 60° WNW 23:22:27 10° N
Cosmos 2297 Rocket 4.3 23:24:18 10° N 23:27:18 16° NE 23:27:18 16° NE
Cosmos 2369 Rocket 3.3 23:41:59 40° NNW 23:41:59 40° NNW 23:46:19 10° NNE
CZ-4C R/B 4.0 23:47:49 25° NNE 23:47:49 25° NNE 23:50:28 10° NE
USA 215 3.7 23:42:14 10° NE 23:48:37 57° NNW 23:54:57 10° WSW
Lacrosse 5 4.0 23:48:37 10° NW 23:52:13 23° N 23:52:13 23° N
Cosmos 2227 Rocket 4.0 23:49:36 10° N 23:52:41 23° NNE 23:52:41 23° NNE
